RH
37 49 54 41 32 32 36 38 36 32 24 15 16 26 36 92 97 94 96 97 96 96 96 96 89 70 44 28 22 22 33 23 25 28 39 48 56 59 63 74 79 76 83 78
29 40 44 44 35 29 29 33 34 32 28 21 13 12 17 31 88 92 97 96 96 96 93 94 94 85 65 52 42 35 39 42 42 40 35 39 62 73 71 72 71 76 86 79
26 25 35 37 39 31 27 23 27 30 29 25 19 12 10 15 48 82 91 97 96 97 93 96 86 93 87 65 56 50 52 53 54 53 43 55 66 70 74 75 73 74 88 82
28 30 24 27 33 31 28 24 20 20 25 26 24 20 13 10 11 33 68 95 96 97 96 100 96 91 92 75 64 59 56 57 56 55 55 57 53 65 76 82 78 83 92 97
30 28 29 24 22 31 29 25 22 20 17 19 22 22 19 12 10 9 17 43 96 96 96 96 97 96 94 84 76 69 68 73 76 76 69 62 73 84 91 86 83 85 76 88
60 36 26 29 25 20 21 27 24 24 20 16 16 18 19 18 15 11 9 12 48 90 96 97 98 97 93 88 90 89 90 84 82 75 72 69 77 88 72 82 84 91 84 90
76 69 50 33 28 26 21 20 20 24 24 22 16 14 16 16 17 16 12 10 21 73 88 96 97 98 96 93 93 97 92 96 93 79 79 87 83 84 89 94 96 94 84 83
80 84 84 67 44 35 28 27 28 24 27 27 18 14 14 14 16 15 15 12 11 24 41 68 93 96 97 97 97 94 90 97 96 96 95 94 96 91 85 94 91 87 76 75
43 69 88 84 79 55 49 41 31 29 30 25 26 19 15 15 13 14 14 13 13 11 10 28 62 78 85 95 97 98 98 98 98 99 100 97 98 97 93 94 94 79 78 85
42 44 61 92 92 91 81 57 51 44 30 24 24 23 22 19 14 12 12 12 12 13 12 11 22 21 18 46 71 76 88 93 95 95 96 95 92 81 90 92 96 75 71 94
70 48 45 47 79 92 95 95 66 58 54 38 22 20 27 22 17 14 12 12 12 12 10 11 11 9 10 13 16 22 30 47 62 84 71 61 70 70 80 76 81 94 83 90
79 80 71 52 51 68 96 100 97 82 74 49 37 37 31 22 20 17 14 13 13 12 11 10 10 11 10 9 10 10 17 17 58 57 53 51 50 61 67 64 63 67 90 81
78 74 77 71 57 54 87 98 97 94 77 73 48 35 31 24 20 18 19 16 14 12 11 10 11 12 12 10 10 11 13 26 31 52 48 60 77 66 72 76 70 74 81 63
58 78 72 88 62 80 74 68 86 91 91 76 70 37 42 27 23 19 13 16 17 17 13 10 10 11 12 13 12 14 20 20 27 40 48 66 79 89 92 71 51 56 66 72
66 70 81 70 100 88 84 79 86 93 100 79 99 70 70 42 24 25 24 22 23 23 21 22 15 14 15 14 16 20 26 31 36 38 44 58 68 61 53 66 77 73 65 50
72 79 83 72 85 88 75 94 72 75 94 84 82 99 84 52 40 32 30 28 35 40 30 25 23 22 18 19 23 25 29 35 39 42 48 58 70 73 65 65 62 44 42 46
84 81 71 62 82 71 76 84 81 80 89 90 90 96 98 91 52 45 37 32 36 59 62 43 40 27 24 22 29 34 42 49 53 57 60 62 56 47 39 40 45 47 43 40
87 80 78 66 73 68 85 94 95 97 97 96 92 92 98 99 95 55 48 38 35 38 59 66 74 60 45 38 33 30 29 30 30 32 35 38 41 45 49 48 41 40 45 46
89 82 74 65 58 56 73 99 94 90 88 98 88 90 96 98 98 99 94 72 45 40 40 48 55 66 75 67 62 56 51 49 50 52 51 51 48 40 38 42 46 47 66 97
97 96 81 68 63 59 76 87 90 85 83 98 99 94 95 100 99 99 99 100 93 66 47 45 48 45 40 38 39 40 41 38 36 37 39 41 42 42 52 85 100 100 100 100
77 82 77 78 72 58 79 82 87 97 93 87 94 94 99 100 98 100 99 97 97 99 100 97 69 49 46 46 47 46 44 44 45 46 57 76 96 100 100 100 99 99 100 100
79 86 89 96 86 67 94 87 92 100 93 89 81 82 84 97 98 95 100 100 100 98 97 97 98 99 99 100 99 99 99 99 98 98 97 96 98 100 100 100 100 100 100 100
55 54 52 60 65 69 68 86 100 98 89 86 83 72 67 75 95 98 99 100 100 100 100 100 100 100 100 100 100 100 100 100 99 99 100 100 100 100 100 100 100 100 100 100
18 13 11 11 12 11 12 20 45 85 77 80 82 80 66 61 84 98 100 99 100 100 100 100 100 100 100 99 99 100 100 100 100 100 100 100 100 100 100 100 100 100 100 100
7 6 5 7 8 6 6 6 9 13 20 29 50 68 67 62 64 92 92 98 99 100 100 100 100 100 100 100 100 100 100 100 100 100 100 100 100 100 100 100 100 100 100 100
4 5 5 6 5 4 6 4 3 3 5 10 13 14 45 70 65 77 81 92 100 100 100 100 100 100 100 100 100 100 100 100 100 100 100 100 100 100 100 100 100 100 100 100
Wind_Speed
27 24 15 7 4 1 9 15 20 27 33 40 46 48 53 63 64 56 55 57 57 51 42 45 49 47 44 43 41 40 41 39 41 41 39 41 39 38 36 35 34 33 32 32
25 23 19 12 6 2 3 11 17 21 29 35 40 44 47 50 61 62 50 57 54 55 48 44 48 50 45 42 42 43 43 44 44 43 43 43 41 41 40 40 37 39 39 37
23 22 20 17 11 4 1 5 13 19 25 31 35 38 41 47 50 57 54 53 61 51 56 51 49 51 48 46 47 48 47 48 47 44 43 43 43 42 40 40 41 42 42 38
29 21 19 17 14 8 2 5 9 14 21 28 32 36 40 42 47 50 55 63 47 54 66 56 56 56 54 52 52 53 52 48 44 42 41 43 41 43 42 42 45 46 50 43
29 27 20 15 14 11 6 3 7 13 17 23 29 34 34 40 41 45 49 50 48 49 46 61 60 60 56 56 56 55 54 51 51 53 47 47 52 46 44 43 50 49 44 44
29 27 23 20 14 10 8 6 6 11 17 22 26 31 32 35 40 44 48 50 53 58 55 47 65 61 59 59 58 56 57 53 52 53 54 51 52 49 45 48 51 50 48 43
28 27 25 22 19 14 9 8 9 12 15 23 28 31 28 33 39 41 44 49 44 51 62 49 44 63 61 60 55 54 53 52 51 50 51 51 48 48 48 49 53 52 47 39
35 29 27 23 21 17 14 12 10 10 11 15 28 33 32 34 35 41 42 45 42 48 52 47 54 44 54 58 56 54 54 57 53 51 51 49 53 52 51 50 48 41 37 39
35 35 28 25 20 20 19 16 13 12 10 10 14 29 34 36 39 38 39 41 41 41 45 45 49 50 53 42 46 52 53 50 55 61 55 48 42 51 58 52 49 42 43 43
35 33 32 27 24 21 20 20 17 16 13 10 8 14 24 33 39 42 40 40 38 36 41 43 46 46 47 45 43 43 45 44 50 50 45 42 34 38 38 40 43 43 44 48
32 31 32 30 27 27 22 21 21 19 17 16 11 8 17 26 36 42 43 44 45 41 39 41 43 44 43 44 43 43 43 48 48 43 39 38 39 41 44 45 48 46 51 54
32 30 29 31 30 25 24 21 22 21 21 19 16 5 14 25 31 37 44 44 45 46 44 42 42 42 44 44 43 44 45 47 42 43 43 41 44 46 45 47 49 50 54 57
34 35 38 27 30 27 23 25 22 22 18 14 20 12 20 23 29 35 40 44 46 47 48 45 44 43 44 45 46 46 45 44 46 47 46 48 50 51 53 54 55 56 58 59
37 34 30 33 31 35 27 27 28 24 20 18 15 14 18 22 28 33 37 41 43 44 45 47 47 46 46 47 46 45 46 47 48 50 52 55 57 57 58 59 59 58 57 57
38 37 34 29 31 32 31 25 30 26 24 25 15 23 17 32 30 28 28 30 34 36 39 38 46 47 48 48 49 49 50 51 52 54 55 56 57 58 56 51 52 55 57 58
38 42 37 29 30 30 26 24 27 29 28 27 24 18 29 28 32 29 21 23 25 31 33 32 35 44 48 48 47 48 51 53 54 52 51 50 50 51 51 53 55 55 56 57
39 38 39 32 30 26 20 24 27 29 27 27 26 25 22 29 29 29 26 19 23 26 33 34 35 37 42 44 46 45 44 44 45 46 47 48 49 49 49 51 53 55 56 58
38 37 40 40 36 36 19 24 30 31 25 29 26 27 27 23 26 27 26 23 22 26 28 33 35 34 34 36 37 39 41 41 41 42 42 43 46 49 51 53 55 56 58 60
29 32 36 38 40 41 28 25 29 32 23 32 27 25 27 28 26 27 29 27 27 25 27 31 32 34 36 36 37 38 39 40 42 44 45 48 49 50 52 54 56 58 59 59
33 35 35 35 41 44 39 35 34 33 32 28 30 30 27 27 29 29 28 29 32 30 30 30 33 34 35 36 38 40 41 42 43 44 46 48 50 52 53 54 54 53 53 55
49 46 45 42 45 48 36 42 39 35 41 38 38 36 35 32 32 30 30 29 29 31 34 35 35 36 38 39 40 42 43 44 45 47 48 49 50 50 49 50 51 51 52 54
53 53 53 53 55 52 45 41 44 42 42 41 43 44 44 38 36 36 35 32 31 32 32 32 33 34 36 37 39 40 42 42 43 43 45 46 46 46 45 46 48 50 53 55
57 54 55 57 56 51 48 47 45 44 45 46 48 48 48 44 37 38 38 36 35 35 35 35 35 36 36 36 36 37 38 39 40 41 41 41 41 41 45 47 50 53 55 57
55 56 62 61 57 57 55 52 49 48 51 50 49 49 50 50 42 38 40 42 39 39 40 39 39 40 39 38 38 38 38 39 40 40 41 42 42 46 48 50 53 54 55 55
61 61 65 65 62 62 60 60 58 56 56 55 53 54 54 52 48 44 41 42 43 41 40 41 41 41 41 42 41 39 37 37 39 40 41 41 46 47 49 51 52 53 53 54
65 66 71 71 69 73 67 68 66 63 59 58 60 60 59 57 54 52 48 45 43 44 44 41 41 40 39 39 37 36 36 37 38 38 41 45 46 48 50 51 53 53 53 52
Wind_Direction
26 29 28 29 44 171 194 199 206 213 219 218 217 215 220 225 222 218 212 206 208 210 216 212 204 208 211 212 213 218 224 226 232 233 238 245 248 252 259 265 271 280 280 278
27 29 31 38 33 36 186 201 211 216 222 224 222 221 221 227 230 223 210 209 208 211 210 204 207 208 209 210 214 219 220 228 234 237 239 241 251 257 256 263 271 272 278 279
23 29 29 31 35 31 275 220 215 220 225 229 229 227 226 227 235 234 216 199 211 214 213 218 214 211 211 213 215 220 220 223 228 234 238 242 251 254 259 267 274 278 272 276
26 25 28 28 27 21 358 240 235 226 225 230 231 231 230 233 229 238 235 223 218 207 216 214 217 214 211 212 213 217 221 221 226 234 241 245 247 254 261 266 268 272 277 276
22 26 23 23 24 19 8 285 254 243 238 233 233 235 232 235 237 235 239 245 226 216 205 212 216 222 209 215 217 219 222 227 233 238 237 240 246 253 258 260 264 274 281 276
13 17 25 25 14 12 3 328 301 275 249 239 238 237 229 237 239 238 238 236 243 238 206 217 218 221 217 221 224 230 231 232 233 236 244 250 250 255 258 259 266 273 268 281
15 10 10 15 19 19 354 331 317 294 278 247 237 235 229 234 239 241 242 245 243 255 234 235 209 212 220 223 225 229 234 237 239 243 248 253 252 257 258 266 267 266 283 265
14 12 7 1 6 7 10 4 339 322 300 275 238 231 230 233 237 241 242 246 247 242 253 260 243 231 213 222 229 230 239 241 245 247 248 242 251 251 257 262 263 264 260 262
10 9 7 5 354 353 354 355 349 348 325 306 270 240 230 234 237 239 242 247 249 246 251 253 257 262 268 234 223 227 235 238 246 230 237 242 267 247 247 259 257 260 261 272
355 359 4 6 2 349 341 336 340 342 341 328 293 264 251 241 239 239 241 244 247 242 240 241 245 253 259 262 261 262 252 248 249 252 255 268 276 275 266 261 266 261 266 276
347 351 351 352 356 352 343 332 326 327 327 324 314 255 263 250 244 242 240 241 245 243 240 242 244 241 243 245 246 253 255 262 259 262 265 269 268 268 266 263 261 270 272 275
343 343 342 342 340 349 347 336 328 315 320 317 309 35 269 256 247 245 245 241 241 244 242 238 240 242 239 241 244 246 246 253 253 252 257 260 266 266 263 262 265 270 274 277
336 336 336 334 329 330 344 335 324 319 311 319 302 313 276 268 261 252 247 245 242 242 244 243 241 239 238 238 237 239 243 243 243 246 249 251 254 258 261 266 270 273 276 280
314 326 324 329 323 319 327 331 320 316 310 288 312 280 285 282 273 264 255 249 249 247 243 242 241 239 240 238 238 238 239 243 247 250 251 253 256 262 267 271 274 276 277 279
307 313 312 315 316 311 314 314 311 311 306 299 270 278 256 274 295 292 279 261 251 247 251 252 245 240 236 236 237 238 240 243 248 251 253 256 259 263 267 270 273 275 278 280
303 310 304 308 309 306 310 298 300 304 303 298 298 288 254 271 283 289 294 269 255 249 240 245 254 249 241 239 239 240 241 244 247 251 254 258 261 265 270 271 274 275 274 277
309 310 306 310 303 304 314 297 294 297 298 299 293 289 278 260 270 279 286 276 258 254 254 244 246 252 252 248 246 247 248 249 252 255 258 262 266 268 269 269 270 274 278 281
307 303 302 307 307 301 310 297 290 295 300 293 290 286 284 268 257 262 272 272 265 254 250 254 249 246 249 252 253 254 256 258 259 260 261 261 262 264 267 271 275 277 279 281
299 298 302 308 308 301 300 302 294 295 300 290 293 289 283 279 271 258 256 262 261 258 253 247 251 256 253 249 249 250 250 252 254 256 259 263 266 269 271 273 276 279 281 282
295 294 294 301 298 297 301 300 294 294 298 296 292 285 282 278 274 270 260 254 254 254 252 251 253 250 250 252 254 255 257 258 260 261 263 265 268 270 274 276 276 278 281 284
294 295 294 295 289 286 298 292 293 293 289 292 291 287 280 272 269 267 267 265 259 252 250 250 250 251 253 253 253 254 256 257 260 262 265 267 268 271 274 276 278 279 279 280
289 289 291 288 283 285 290 290 288 287 284 287 284 283 280 275 270 267 264 263 264 264 260 255 252 250 250 251 254 256 257 259 261 264 266 268 270 273 275 276 278 280 284 286
288 290 288 283 284 287 287 283 283 280 279 281 279 280 281 281 274 268 266 266 266 261 259 259 260 260 261 262 263 265 266 269 271 273 275 276 278 278 276 280 282 283 284 286
286 285 282 283 286 282 281 280 274 272 272 274 275 274 274 274 274 269 264 260 262 262 261 261 260 261 263 265 267 269 272 273 275 275 276 279 278 277 278 279 280 281 283 286
283 284 284 282 282 280 278 277 273 269 268 269 269 270 271 271 271 271 269 264 263 261 260 260 261 262 264 265 267 269 270 270 272 275 278 275 273 275 277 277 279 283 286 288
282 280 278 280 278 278 277 276 274 271 270 268 266 265 266 268 269 268 268 265 261 262 265 268 266 264 266 267 267 269 274 279 282 281 274 273 274 276 276 277 281 283 286 289